TAM265 LPPT-SBGL

Flight info

Callsign TAM265
Flight time N/A
Altitude 33000
Route OLBOD DCT DIKUV DCT SNT/N0487F340 Q205 NELSO N741 ROSTA/N0489F350 N741 EDUMO UN741 KEPAS/N0495F360 UN741 TERIN UZ19 UGEPO/N0489F380 UZ19 ANPAG UZ29 KEVOS UN401 MOLSU
Aircraft B77W/H-SDE1E2E3FGHIJ2J3J4J5M1RWXY/LB1D1

Departure

Time N/A
Airport Lisbon Humberto Delgado Airport (LPPT)

Arrival

Time 2026-05-06 08:39
Airport Rio Galeão – Tom Jobim International Airport (SBGL)
Time Latitude Longitude Altitude Speed Heading
2026-05-06 08:24 -22.34740 -43.38365 14715 ft 397 kts 255°
2026-05-06 08:25 -22.35447 -43.41372 14266 ft 397 kts 255°
2026-05-06 08:25 -22.36127 -43.44249 13781 ft 393 kts 253°
2026-05-06 08:25 -22.37220 -43.46893 13366 ft 383 kts 233°
2026-05-06 08:25 -22.39036 -43.48945 12854 ft 377 kts 217°
2026-05-06 08:26 -22.41288 -43.50349 12319 ft 372 kts 201°
2026-05-06 08:26 -22.43697 -43.51329 11764 ft 370 kts 199°
2026-05-06 08:26 -22.46090 -43.52271 11565 ft 358 kts 199°
2026-05-06 08:26 -22.48379 -43.53195 11463 ft 344 kts 199°
2026-05-06 08:27 -22.50573 -43.54103 11376 ft 331 kts 200°
2026-05-06 08:27 -22.52686 -43.54987 11297 ft 319 kts 200°
2026-05-06 08:27 -22.54731 -43.55760 11178 ft 303 kts 189°
2026-05-06 08:27 -22.56788 -43.55754 10987 ft 292 kts 166°
2026-05-06 08:28 -22.58659 -43.55015 10831 ft 283 kts 153°
2026-05-06 08:28 -22.60409 -43.54084 10570 ft 279 kts 153°
2026-05-06 08:28 -22.62145 -43.53154 10264 ft 278 kts 153°
2026-05-06 08:28 -22.63851 -43.52190 9901 ft 274 kts 144°
2026-05-06 08:29 -22.65155 -43.50715 9402 ft 273 kts 124°
2026-05-06 08:29 -22.66248 -43.49025 9048 ft 273 kts 125°
2026-05-06 08:29 -22.67341 -43.47356 8792 ft 270 kts 125°
2026-05-06 08:29 -22.68418 -43.45720 8654 ft 261 kts 125°
2026-05-06 08:30 -22.69456 -43.44151 8558 ft 251 kts 125°
2026-05-06 08:30 -22.70452 -43.42647 8482 ft 241 kts 125°
2026-05-06 08:30 -22.71407 -43.41206 8398 ft 230 kts 125°
2026-05-06 08:30 -22.72318 -43.39830 8289 ft 219 kts 125°
2026-05-06 08:31 -22.73191 -43.38513 8132 ft 211 kts 125°
2026-05-06 08:31 -22.74036 -43.37238 7893 ft 207 kts 125°
2026-05-06 08:31 -22.74872 -43.35976 7576 ft 207 kts 125°
2026-05-06 08:31 -22.75732 -43.34678 7271 ft 216 kts 125°
2026-05-06 08:32 -22.76591 -43.33304 6790 ft 224 kts 116°
2026-05-06 08:32 -22.76878 -43.31619 6134 ft 239 kts 84°
2026-05-06 08:32 -22.76250 -43.29913 5489 ft 254 kts 52°
2026-05-06 08:32 -22.74824 -43.28840 5235 ft 250 kts 18°
2026-05-06 08:33 -22.73130 -43.28823 5050 ft 244 kts 342°
2026-05-06 08:33 -22.71820 -43.29845 5001 ft 226 kts 308°
2026-05-06 08:33 -22.70927 -43.31167 4995 ft 213 kts 306°
2026-05-06 08:33 -22.70059 -43.32463 5000 ft 213 kts 306°
2026-05-06 08:34 -22.69481 -43.33326 4923 ft 216 kts 306°
2026-05-06 08:34 -22.67732 -43.36124 3880 ft 237 kts 290°
2026-05-06 08:34 -22.67614 -43.37912 3434 ft 242 kts 256°
2026-05-06 08:35 -22.68403 -43.39461 3225 ft 234 kts 224°
2026-05-06 08:35 -22.69795 -43.40292 2943 ft 231 kts 192°
2026-05-06 08:35 -22.71411 -43.40204 2382 ft 241 kts 159°
2026-05-06 08:35 -22.72738 -43.39168 2173 ft 233 kts 131°
2026-05-06 08:36 -22.73705 -43.37818 2082 ft 220 kts 125°
2026-05-06 08:36 -22.74549 -43.36525 2000 ft 198 kts 124°
2026-05-06 08:36 -22.75288 -43.35395 1983 ft 172 kts 125°
2026-05-06 08:36 -22.75963 -43.34370 1755 ft 162 kts 125°
2026-05-06 08:37 -22.76583 -43.33429 1578 ft 147 kts 125°
2026-05-06 08:37 -22.77173 -43.32534 1385 ft 146 kts 125°
2026-05-06 08:37 -22.77761 -43.31644 1194 ft 144 kts 125°
2026-05-06 08:37 -22.78341 -43.30764 1008 ft 143 kts 125°
2026-05-06 08:38 -22.78920 -43.29887 820 ft 142 kts 125°
2026-05-06 08:38 -22.79488 -43.29022 652 ft 140 kts 124°
2026-05-06 08:38 -22.80051 -43.28168 504 ft 139 kts 125°
2026-05-06 08:38 -22.80601 -43.27324 305 ft 137 kts 126°
2026-05-06 08:39 -22.81163 -43.26486 113 ft 139 kts 125°
2026-05-06 08:39 -22.81723 -43.25642 28 ft 130 kts 126°
2026-05-06 08:39 -22.82146 -43.25008 28 ft 77 kts 126°
2026-05-06 08:39 -22.82342 -43.24658 28 ft 35 kts 104°
2026-05-06 08:40 -22.82365 -43.24505 26 ft 14 kts 95°
2026-05-06 08:40 -22.82365 -43.24480 27 ft 0 kts 83°
2026-05-06 08:40 -22.82365 -43.24479 27 ft 0 kts 83°
2026-05-06 08:41 -22.82365 -43.24478 27 ft 1 kts 83°
2026-05-06 08:41 -22.82318 -43.24412 30 ft 15 kts 39°
2026-05-06 08:41 -22.82235 -43.24344 28 ft 15 kts 37°
2026-05-06 08:41 -22.82134 -43.24306 28 ft 17 kts 343°
2026-05-06 08:42 -22.82021 -43.24323 26 ft 15 kts 353°
2026-05-06 08:42 -22.81972 -43.24330 26 ft 3 kts 353°
2026-05-06 08:42 -22.81969 -43.24330 26 ft 0 kts 353°